"Pseudo-MPEC" for ZTF10Di

Created 2026 May 8 1:35:08 UT using Find_Orb

Click here for an explanation of pseudo-MPECs

 
 Astrometry: 
     ZTF10Di*0C2026 05 07.37419214 55 06.923-08 39 17.15   ~57Ao 16.62gUNEOCPI41
     ZTF10Di 0C2026 05 07.37454014 55 12.145-08 39 37.30   ~57Ao 16.62gUNEOCPI41
     ZTF10Di 0C2026 05 07.38893914 58 50.489-08 53 30.27   ~57Ao 15.97iUNEOCPI41
     ZTF10Di 0C2026 05 07.38928614 58 55.814-08 53 50.07   ~57Ao 15.97iUNEOCPI41

Station data:
(I41) Palomar Mountain--ZTF  (N33.357336 W116.859780)  US/California.
   Observers B. T. Bolin, Z. T. F. Collaboration. Measurers B. T. Bolin,
   Z.-Y. Lin, F. J. Masci. 1.2-m f/2.4 Schmidt.

Orbital elements:  ZTF10Di
   Perigee 2026 May 7.113257 +/- 36.4 TT =  2:43:05.4 (JD 2461167.613257)
Epoch 2026 May  7.0 TT = JDT 2461167.5                           AutoNEOCP
q154083.7582 +/- 1.56e+7            (J2000 equator)
H   28.27 G 0.15                    Peri.  137.955780 +/- 60
                                    Node    16.898050 +/- 80
e 135.12929219 +/- 0.251            Incl.   17.384100 +/- 1.4
From 4 observations 2026 May 7 (21.7 min); mean residual 1".66
Residuals in arcseconds: 
260507 I41  2.3+  .57-    260507 I41  2.3-  .41+    
260507 I41  2.3-  .57+    260507 I41  2.3+  .41-    

Ephemerides (geocentric):
Date (UTC) HH   RA             Dec           delta  r     elong  mag " sig PA
---- --------  ------------   ------------  ------ ------ -----  --- --------
2026 05 08 02  15 53 05.863   -11 41 33.49  .01051 1.0193 165.8 19.2  58d  94
2026 05 08 03  15 54 01.076   -11 44 39.99  .01096 1.0198 165.7 19.3  58d  94
2026 05 08 04  15 54 51.976   -11 47 31.31  .01140 1.0202 165.5 19.4  58d  94
2026 05 08 05  15 55 39.048   -11 50 09.23  .01185 1.0207 165.4 19.5  58d  94
2026 05 08 06  15 56 22.705   -11 52 35.25  .01230 1.0211 165.3 19.6  59d  94
2026 05 08 07  15 57 03.305   -11 54 50.66  .01275 1.0215 165.2 19.7  59d  94
2026 05 08 08  15 57 41.156   -11 56 56.58  .01319 1.0220 165.1 19.7  59d  94
2026 05 08 09  15 58 16.526   -11 58 53.98  .01364 1.0224 165.0 19.8  59d  94
2026 05 08 10  15 58 49.652   -12 00 43.68  .01409 1.0228 164.9 19.9  59d  94
2026 05 08 11  15 59 20.738   -12 02 26.42  .01453 1.0233 164.8 20.0  59d  94
2026 05 08 12  15 59 49.966   -12 04 02.85  .01498 1.0237 164.8 20.0  59d  94
2026 05 08 13  16 00 17.498   -12 05 33.52  .01543 1.0242 164.7 20.1  59d  94
2026 05 08 14  16 00 43.475   -12 06 58.95  .01588 1.0246 164.7 20.2  59d  94
2026 05 08 15  16 01 08.025   -12 08 19.56  .01632 1.0250 164.6 20.2  60d  94
2026 05 08 16  16 01 31.261   -12 09 35.77  .01677 1.0255 164.6 20.3  60d  94
2026 05 08 17  16 01 53.286   -12 10 47.91  .01722 1.0259 164.5 20.3  60d  94
2026 05 08 18  16 02 14.191   -12 11 56.32  .01767 1.0263 164.5 20.4  60d  94
2026 05 08 19  16 02 34.058   -12 13 01.27  .01812 1.0268 164.4 20.5  60d  94
2026 05 08 20  16 02 52.962   -12 14 03.02  .01856 1.0272 164.4 20.5  60d  94
2026 05 08 21  16 03 10.972   -12 15 01.80  .01901 1.0277 164.4 20.6  60d  94
2026 05 08 22  16 03 28.147   -12 15 57.83  .01946 1.0281 164.3 20.6  60d  94
2026 05 08 23  16 03 44.545   -12 16 51.29  .01991 1.0285 164.3 20.7  60d  95
2026 05 09 00  16 04 00.216   -12 17 42.36  .02036 1.0290 164.3 20.7  60d  95
2026 05 09 01  16 04 15.207   -12 18 31.19  .02080 1.0294 164.3 20.8  60d  95
2026 05 09 02  16 04 29.561   -12 19 17.94  .02125 1.0299 164.3 20.8  60d  95
2026 05 09 03  16 04 43.317   -12 20 02.73  .02170 1.0303 164.3 20.9  60d  95
2026 05 09 04  16 04 56.511   -12 20 45.68  .02215 1.0307 164.2 20.9  60d  95
2026 05 09 05  16 05 09.176   -12 21 26.92  .02260 1.0312 164.2 21.0  60d  95
2026 05 09 06  16 05 21.343   -12 22 06.53  .02305 1.0316 164.2 21.0  60d  95
2026 05 09 07  16 05 33.040   -12 22 44.62  .02349 1.0321 164.2 21.0  60d  95
2026 05 09 08  16 05 44.294   -12 23 21.28  .02394 1.0325 164.2 21.1  60d  95
2026 05 09 09  16 05 55.128   -12 23 56.58  .02439 1.0330 164.2 21.1  60d  95
2026 05 09 10  16 06 05.566   -12 24 30.60  .02484 1.0334 164.2 21.2  60d  95
2026 05 09 11  16 06 15.628   -12 25 03.41  .02529 1.0338 164.2 21.2  60d  95
2026 05 09 12  16 06 25.334   -12 25 35.07  .02574 1.0343 164.2 21.2  60d  95
2026 05 09 13  16 06 34.701   -12 26 05.65  .02618 1.0347 164.2 21.3  60d  95
2026 05 09 14  16 06 43.748   -12 26 35.20  .02663 1.0352 164.2 21.3  60d  95
2026 05 09 15  16 06 52.489   -12 27 03.78  .02708 1.0356 164.2 21.4  60d  95
2026 05 09 16  16 07 00.939   -12 27 31.42  .02753 1.0361 164.2 21.4  60d  95
2026 05 09 17  16 07 09.113   -12 27 58.19  .02798 1.0365 164.2 21.4  60d  95
2026 05 09 18  16 07 17.023   -12 28 24.12  .02843 1.0369 164.2 21.5  60d  95
2026 05 09 19  16 07 24.682   -12 28 49.25  .02888 1.0374 164.2 21.5  60d  95
2026 05 09 20  16 07 32.101   -12 29 13.62  .02933 1.0378 164.2 21.5  60d  95
2026 05 09 21  16 07 39.290   -12 29 37.26  .02977 1.0383 164.2 21.6  60d  95
2026 05 09 22  16 07 46.260   -12 30 00.21  .03022 1.0387 164.3 21.6  60d  95
2026 05 09 23  16 07 53.020   -12 30 22.50  .03067 1.0392 164.3 21.6  60d  95
2026 05 10 00  16 07 59.580   -12 30 44.16  .03112 1.0396 164.3 21.7  60d  95
2026 05 10 01  16 08 05.947   -12 31 05.21  .03157 1.0400 164.3 21.7  60d  95